Retour au catalogue

USA 40 R/B DEB

LostHEO
NORAD 23371·DEBRIS·🇺🇸 United States

Lancé Aug 8, 1989 depuis Cape Canaveral Space Force Station

Loading…

Prochains Passages (prochaines 24 heures)

TLE

PériméSource: Space-Track

Époque: Feb 25, 2019, 20:11 UTC

1 23371U 89061AT  19056.84149841  .00002322  00000-0  10361-2 0  9992
2 23371  56.9693 178.7457 3130077 132.8336 258.2374  8.76462641  1312

Suivez USA 40 R/B DEB en temps réel avec AllMySat

Download on the App Store